| time (UTC) | temp F | wind direction | speed MPH | gust MPH | rain 1hr in | rain 24hr in | rain mn in | humidity % | barometer mb |
| 20260509161753 | 53 | 90 | 0.0 | 0.0 | 0.12 | 0.19 | 0.19 | 94 | 1039.6 |
| 20260509160750 | 52 | 89 | 1.0 | 1.0 | 0.12 | 0.18 | 0.18 | 94 | 1039.7 |
| 20260509155748 | 52 | 117 | 6.0 | 9.0 | 0.12 | 0.16 | 0.16 | 94 | 1039.6 |
| 20260509154747 | 52 | 38 | 3.0 | 3.0 | 0.14 | 0.14 | 0.14 | 94 | 1039.6 |
| 20260509153747 | 52 | 298 | 3.0 | 3.0 | 0.00 | 0.12 | 0.12 | 95 | 1039.4 |
| 20260509152745 | 51 | 144 | 3.0 | 3.0 | 0.00 | 0.12 | 0.12 | 95 | 1039.6 |
| 20260509151745 | 52 | 66 | 3.0 | 3.0 | 0.05 | 0.12 | 0.12 | 95 | 1039.7 |
| 20260509150739 | 52 | 85 | 0.0 | 0.0 | 0.00 | 0.11 | 0.11 | 95 | 1039.7 |
| 20260509145734 | 52 | 94 | 0.0 | 0.0 | 0.07 | 0.11 | 0.11 | 95 | 1039.8 |
| 20260509144731 | 51 | 100 | 1.0 | 1.0 | 0.00 | 0.10 | 0.10 | 95 | 1039.8 |
| 20260509143731 | 51 | 92 | 0.0 | 0.0 | 0.00 | 0.10 | 0.10 | 95 | 1039.5 |
| 20260509142729 | 51 | 99 | 0.0 | 0.0 | 0.00 | 0.10 | 0.10 | 95 | 1039.5 |
| 20260509141727 | 51 | 100 | 0.0 | 0.0 | 0.05 | 0.10 | 0.10 | 95 | 1039.9 |
| 20260509140727 | 50 | 100 | 0.0 | 0.0 | 0.00 | 0.09 | 0.09 | 95 | 1039.9 |
| 20260509135722 | 50 | 100 | 0.0 | 0.0 | 0.07 | 0.09 | 0.09 | 95 | 1039.9 |
| 20260509134722 | 50 | 101 | 0.0 | 0.0 | 0.00 | 0.08 | 0.08 | 95 | 1040.1 |
| 20260509133717 | 50 | 101 | 0.0 | 0.0 | 0.05 | 0.08 | 0.08 | 95 | 1039.9 |
| 20260509132712 | 50 | 101 | 0.0 | 0.0 | 0.07 | 0.07 | 0.07 | 95 | 1040.1 |
| 20260509131712 | 50 | 101 | 0.0 | 0.0 | 0.00 | 0.06 | 0.06 | 95 | 1039.9 |
| 20260509130711 | 49 | 102 | 1.0 | 1.0 | 0.05 | 0.06 | 0.06 | 95 | 1039.9 |
| 20260509125710 | 49 | 104 | 3.0 | 3.0 | 0.00 | 0.05 | 0.05 | 95 | 1039.3 |
| 20260509124709 | 49 | 98 | 0.0 | 0.0 | 0.07 | 0.05 | 0.05 | 95 | 1039.7 |
| 20260509123704 | 49 | 101 | 1.0 | 1.0 | 0.00 | 0.04 | 0.04 | 95 | 1039.7 |
| 20260509122702 | 49 | 108 | 1.0 | 1.0 | 0.00 | 0.04 | 0.04 | 95 | 1039.5 |
| 20260509121701 | 48 | 106 | 1.0 | 1.0 | 0.00 | 0.04 | 0.04 | 95 | 1039.7 |
| 20260509120657 | 48 | 96 | 0.0 | 1.0 | 0.00 | 0.04 | 0.04 | 95 | 1039.4 |
| 20260509115652 | 48 | 101 | 0.0 | 0.0 | 0.00 | 0.04 | 0.04 | 95 | 1039.8 |
| 20260509114648 | 48 | 103 | 0.0 | 0.0 | 0.00 | 0.04 | 0.04 | 95 | 1040.0 |
| 20260509113644 | 48 | 101 | 0.0 | 0.0 | 0.05 | 0.04 | 0.04 | 95 | 1039.9 |
| 20260509112643 | 48 | 101 | 0.0 | 0.0 | 0.00 | 0.03 | 0.03 | 95 | 1039.8 |
| 20260509111638 | 47 | 144 | 2.0 | 2.0 | 0.00 | 0.03 | 0.03 | 95 | 1039.7 |
| 20260509110637 | 47 | 96 | 0.0 | 0.0 | 0.00 | 0.03 | 0.03 | 95 | 1039.9 |
| 20260509105633 | 47 | 96 | 0.0 | 0.0 | 0.00 | 0.03 | 0.03 | 95 | 1039.9 |
| 20260509104633 | 46 | 103 | 0.0 | 0.0 | 0.00 | 0.03 | 0.03 | 95 | 1039.8 |
| 20260509103627 | 46 | 96 | 0.0 | 0.0 | 0.00 | 0.03 | 0.03 | 95 | 1040.0 |
| 20260509102627 | 46 | 96 | 0.0 | 0.0 | 0.00 | 0.03 | 0.03 | 95 | 1039.8 |
| 20260509101626 | 46 | 96 | 0.0 | 0.0 | 0.00 | 0.03 | 0.03 | 95 | 1040.0 |
| 20260509100626 | 46 | 95 | 0.0 | 0.0 | 0.00 | 0.03 | 0.03 | 95 | 1039.7 |
| 20260509095626 | 46 | 100 | 0.0 | 0.0 | 0.00 | 0.03 | 0.03 | 95 | 1040.0 |
| 20260509094625 | 46 | 118 | 0.0 | 1.0 | 0.00 | 0.03 | 0.03 | 95 | 1039.9 |
| 20260509093621 | 46 | 96 | 0.0 | 0.0 | 0.00 | 0.03 | 0.03 | 95 | 1039.9 |
| 20260509092621 | 46 | 96 | 0.0 | 0.0 | 0.00 | 0.03 | 0.03 | 95 | 1039.9 |
| 20260509091617 | 46 | 96 | 0.0 | 0.0 | 0.00 | 0.03 | 0.03 | 95 | 1039.9 |
| 20260509090617 | 46 | 96 | 0.0 | 0.0 | 0.00 | 0.03 | 0.03 | 95 | 1039.8 |
| 20260509085617 | 46 | 96 | 0.0 | 0.0 | 0.00 | 0.03 | 0.03 | 95 | 1040.0 |
| 20260509084616 | 46 | 96 | 0.0 | 0.0 | 0.00 | 0.03 | 0.03 | 95 | 1040.1 |
| 20260509083616 | 46 | 96 | 0.0 | 0.0 | 0.00 | 0.03 | 0.03 | 95 | 1040.5 |
| 20260509082616 | 46 | 97 | 0.0 | 0.0 | 0.00 | 0.03 | 0.03 | 95 | 1040.6 |
| 20260509081616 | 46 | 97 | 0.0 | 0.0 | 0.00 | 0.03 | 0.03 | 95 | 1040.6 |
| 20260509080611 | 46 | 101 | 0.0 | 0.0 | 0.00 | 0.03 | 0.03 | 95 | 1040.8 |
| 20260509075606 | 46 | 101 | 0.0 | 0.0 | 0.00 | 0.03 | 0.03 | 95 | 1041.0 |
| 20260509074606 | 46 | 101 | 0.0 | 0.0 | 0.00 | 0.03 | 0.03 | 95 | 1040.7 |
| 20260509073606 | 46 | 100 | 0.0 | 0.0 | 0.00 | 0.03 | 0.03 | 95 | 1040.7 |
| 20260509072605 | 46 | 101 | 0.0 | 0.0 | 0.00 | 0.03 | 0.03 | 95 | 1040.7 |
| 20260509071604 | 46 | 101 | 0.0 | 0.0 | 0.00 | 0.03 | 0.03 | 95 | 1040.8 |
| 20260509070604 | 46 | 101 | 0.0 | 0.0 | 0.07 | 0.03 | 0.03 | 95 | 1040.7 |
| 20260509065601 | 46 | 101 | 0.0 | 0.0 | 0.00 | 0.02 | 0.02 | 95 | 1040.7 |
| 20260509064602 | 46 | 101 | 0.0 | 0.0 | 0.00 | 0.02 | 0.02 | 95 | 1040.7 |
| 20260509063601 | 46 | 103 | 0.0 | 0.0 | 0.00 | 0.02 | 0.02 | 95 | 1041.1 |
| 20260509062601 | 46 | 94 | 0.0 | 0.0 | 0.00 | 0.02 | 0.02 | 95 | 1041.0 |
| 20260509061601 | 46 | 88 | 0.0 | 0.0 | 0.00 | 0.02 | 0.02 | 95 | 1041.2 |
| 20260509060556 | 46 | 98 | 0.0 | 0.0 | 0.00 | 0.02 | 0.02 | 95 | 1041.3 |
| 20260509055553 | 47 | 98 | 0.0 | 0.0 | 0.00 | 0.02 | 0.02 | 95 | 1041.8 |
| 20260509054552 | 46 | 99 | 0.0 | 0.0 | 0.05 | 0.02 | 0.02 | 95 | 1041.9 |
| 20260509053549 | 47 | 90 | 0.0 | 0.0 | 0.00 | 0.01 | 0.01 | 95 | 1041.6 |
| 20260509052549 | 46 | 90 | 0.0 | 0.0 | 0.00 | 0.01 | 0.01 | 95 | 1041.8 |
| 20260509051544 | 46 | 95 | 0.0 | 0.0 | 0.00 | 0.01 | 0.01 | 95 | 1041.2 |
| 20260509050544 | 46 | 95 | 0.0 | 0.0 | 0.00 | 0.01 | 0.01 | 95 | 1041.1 |
| 20260509045544 | 46 | 94 | 0.0 | 0.0 | 0.00 | 0.01 | 0.01 | 95 | 1040.9 |
| 20260509044544 | 46 | 109 | 0.0 | 0.0 | 0.00 | 0.01 | 0.01 | 95 | 1040.9 |
| 20260509043543 | 46 | 102 | 0.0 | 0.0 | 0.07 | 0.01 | 0.01 | 95 | 1040.8 |
| 20260509042541 | 46 | 82 | 0.0 | 0.0 | 0.00 | 0.00 | 0.00 | 95 | 1041.3 |
| 20260509041540 | 46 | 104 | 0.0 | 0.0 | 0.00 | 0.00 | 0.00 | 95 | 1041.3 |
| 20260509040536 | 46 | 104 | 0.0 | 0.0 | 0.00 | 0.00 | 0.00 | 95 | 1041.2 |
| 20260509035535 | 46 | 111 | 0.0 | 0.0 | 0.00 | 0.11 | 0.11 | 95 | 1041.2 |
| 20260509034530 | 46 | 109 | 0.0 | 0.0 | 0.00 | 0.11 | 0.11 | 95 | 1041.2 |
| 20260509033530 | 47 | 106 | 0.0 | 0.0 | 0.07 | 0.11 | 0.11 | 95 | 1041.1 |
| 20260509032529 | 47 | 99 | 0.0 | 0.0 | 0.00 | 0.10 | 0.10 | 95 | 1041.3 |
| 20260509031530 | 47 | 99 | 0.0 | 0.0 | 0.00 | 0.10 | 0.10 | 95 | 1041.5 |
| 20260509030525 | 47 | 99 | 0.0 | 0.0 | 0.00 | 0.10 | 0.10 | 95 | 1041.6 |
| 20260509025523 | 47 | 88 | 0.0 | 0.0 | 0.00 | 0.10 | 0.10 | 95 | 1041.5 |
| 20260509024521 | 47 | 78 | 0.0 | 0.0 | 0.00 | 0.10 | 0.10 | 95 | 1041.6 |
| 20260509023521 | 47 | 97 | 0.0 | 0.0 | 0.00 | 0.10 | 0.10 | 95 | 1041.4 |
| 20260509022519 | 47 | 97 | 0.0 | 0.0 | 0.00 | 0.10 | 0.10 | 95 | 1041.3 |
| 20260509021514 | 47 | 97 | 0.0 | 0.0 | 0.00 | 0.10 | 0.10 | 95 | 1041.5 |
| 20260509020509 | 47 | 97 | 0.0 | 0.0 | 0.00 | 0.10 | 0.10 | 95 | 1041.4 |
| 20260509015505 | 47 | 97 | 0.0 | 0.0 | 0.00 | 0.10 | 0.10 | 95 | 1041.2 |
| 20260509014504 | 48 | 97 | 0.0 | 0.0 | 0.00 | 0.10 | 0.10 | 95 | 1041.1 |
| 20260509013503 | 48 | 97 | 0.0 | 0.0 | 0.00 | 0.10 | 0.10 | 95 | 1041.0 |
| 20260509012501 | 49 | 97 | 0.0 | 0.0 | 0.00 | 0.10 | 0.10 | 95 | 1041.0 |
| 20260509011456 | 49 | 97 | 0.0 | 0.0 | 0.00 | 0.10 | 0.10 | 95 | 1041.2 |
| 20260509010451 | 49 | 97 | 0.0 | 0.0 | 0.00 | 0.10 | 0.10 | 95 | 1041.0 |
| 20260509005446 | 49 | 96 | 0.0 | 0.0 | 0.00 | 0.10 | 0.10 | 94 | 1040.9 |
| 20260509004442 | 49 | 101 | 0.0 | 0.0 | 0.00 | 0.10 | 0.10 | 94 | 1040.9 |
| 20260509003438 | 49 | 101 | 0.0 | 0.0 | 0.00 | 0.10 | 0.10 | 94 | 1040.3 |
| 20260509002439 | 50 | 101 | 0.0 | 0.0 | 0.00 | 0.10 | 0.10 | 93 | 1040.8 |
| 20260509001438 | 50 | 105 | 0.0 | 0.0 | 0.00 | 0.10 | 0.10 | 93 | 1040.5 |
| 20260509000433 | 50 | 105 | 0.0 | 0.0 | 0.00 | 0.10 | 0.10 | 92 | 1040.3 |
| 20260508235432 | 50 | 107 | 0.0 | 0.0 | 0.00 | 0.10 | 0.10 | 92 | 1040.4 |
| 20260508234431 | 50 | 108 | 0.0 | 0.0 | 0.00 | 0.10 | 0.10 | 91 | 1040.3 |
| 20260508233428 | 51 | 107 | 0.0 | 0.0 | 0.05 | 0.10 | 0.10 | 89 | 1040.3 |
| 20260508232427 | 51 | 108 | 0.0 | 0.0 | 0.00 | 0.09 | 0.09 | 87 | 1040.1 |
| 20260508231428 | 52 | 108 | 0.0 | 0.0 | 0.00 | 0.09 | 0.09 | 83 | 1040.2 |
| 20260508230427 | 53 | 106 | 0.0 | 0.0 | 0.00 | 0.09 | 0.09 | 78 | 1040.2 |
| 20260508225426 | 54 | 107 | 0.0 | 0.0 | 0.00 | 0.09 | 0.09 | 73 | 1040.2 |
| 20260508224421 | 55 | 118 | 1.0 | 2.0 | 0.00 | 0.09 | 0.09 | 68 | 1040.1 |
| 20260508223416 | 57 | 104 | 0.0 | 1.0 | 0.00 | 0.09 | 0.09 | 62 | 1039.7 |
| 20260508222416 | 58 | 108 | 1.0 | 1.0 | 0.00 | 0.09 | 0.09 | 59 | 1039.6 |
| 20260508221414 | 56 | 98 | 1.0 | 1.0 | 0.00 | 0.09 | 0.09 | 59 | 1039.7 |
| 20260508220413 | 56 | 155 | 2.0 | 2.0 | 0.00 | 0.09 | 0.09 | 61 | 1039.7 |
| 20260508215413 | 57 | 104 | 0.0 | 1.0 | 0.00 | 0.09 | 0.09 | 58 | 1039.7 |
| 20260508214413 | 58 | 77 | 1.0 | 1.0 | 0.00 | 0.09 | 0.09 | 57 | 1039.7 |
| 20260508213412 | 56 | 103 | 1.0 | 1.0 | 0.00 | 0.09 | 0.09 | 64 | 1039.9 |
| 20260508212410 | 57 | 106 | 0.0 | 0.0 | 0.00 | 0.09 | 0.09 | 61 | 1039.6 |
| 20260508211407 | 56 | 130 | 2.0 | 2.0 | 0.00 | 0.09 | 0.09 | 62 | 1040.1 |
| 20260508210407 | 57 | 119 | 1.0 | 2.0 | 0.00 | 0.09 | 0.09 | 63 | 1040.0 |
| 20260508205407 | 58 | 190 | 3.0 | 3.0 | 0.00 | 0.09 | 0.09 | 64 | 1040.2 |
| 20260508204406 | 56 | 68 | 1.0 | 2.0 | 0.00 | 0.09 | 0.09 | 63 | 1040.3 |
| 20260508203404 | 56 | 36 | 2.0 | 2.0 | 0.00 | 0.09 | 0.09 | 63 | 1040.2 |
| 20260508202403 | 56 | 18 | 4.0 | 5.0 | 0.00 | 0.09 | 0.09 | 61 | 1040.4 |
| 20260508201403 | 57 | 95 | 1.0 | 2.0 | 0.00 | 0.09 | 0.09 | 60 | 1040.1 |
| 20260508200402 | 57 | 3 | 3.0 | 3.0 | 0.00 | 0.09 | 0.09 | 59 | 1040.3 |
| 20260508195401 | 58 | 358 | 4.0 | 5.0 | 0.00 | 0.09 | 0.09 | 59 | 1040.4 |
| 20260508194400 | 57 | 72 | 3.0 | 3.0 | 0.00 | 0.09 | 0.09 | 60 | 1040.3 |
| 20260508193359 | 54 | 270 | 4.0 | 6.0 | 0.00 | 0.09 | 0.09 | 66 | 1040.5 |
| 20260508192358 | 54 | 278 | 3.0 | 3.0 | 0.00 | 0.09 | 0.09 | 68 | 1040.7 |
| 20260508191353 | 54 | 41 | 1.0 | 2.0 | 0.00 | 0.09 | 0.09 | 65 | 1040.5 |
| 20260508190352 | 55 | 47 | 3.0 | 5.0 | 0.00 | 0.09 | 0.09 | 61 | 1040.8 |
| 20260508185352 | 55 | 106 | 1.0 | 1.0 | 0.00 | 0.09 | 0.09 | 59 | 1040.5 |
| 20260508184353 | 55 | 98 | 1.0 | 1.0 | 0.00 | 0.09 | 0.09 | 61 | 1040.7 |
| 20260508183352 | 55 | 100 | 1.0 | 1.0 | 0.00 | 0.09 | 0.09 | 59 | 1040.6 |
| 20260508182350 | 55 | 248 | 4.0 | 6.0 | 0.00 | 0.09 | 0.09 | 59 | 1040.6 |
| 20260508181349 | 56 | 272 | 10.0 | 13.0 | 0.00 | 0.09 | 0.09 | 57 | 1041.1 |
| 20260508180348 | 56 | 92 | 3.0 | 3.0 | 0.00 | 0.09 | 0.09 | 57 | 1040.9 |
| 20260508175347 | 55 | 54 | 2.0 | 2.0 | 0.00 | 0.09 | 0.09 | 60 | 1041.1 |
| 20260508174342 | 54 | 311 | 5.0 | 7.0 | 0.00 | 0.09 | 0.09 | 60 | 1041.0 |
| 20260508173342 | 54 | 289 | 6.0 | 8.0 | 0.00 | 0.09 | 0.09 | 60 | 1041.1 |
| 20260508172341 | 55 | 293 | 7.0 | 8.0 | 0.00 | 0.09 | 0.09 | 58 | 1041.0 |
| 20260508171339 | 54 | 319 | 6.0 | 7.0 | 0.00 | 0.09 | 0.09 | 60 | 1041.2 |
| 20260508170334 | 53 | 48 | 3.0 | 3.0 | 0.00 | 0.09 | 0.09 | 66 | 1041.3 |
| 20260508165334 | 52 | 172 | 2.0 | 2.0 | 0.00 | 0.09 | 0.09 | 65 | 1041.3 |
| 20260508164332 | 52 | 177 | 4.0 | 5.0 | 0.00 | 0.09 | 0.09 | 66 | 1041.6 |
| 20260508163327 | 51 | 331 | 3.0 | 3.0 | 0.00 | 0.09 | 0.09 | 69 | 1041.6 |